AFR594 LFPG-GQNO

Flight info

Callsign AFR594
Flight time N/A
Altitude 33000
Route LGL UT190 GODIX UN872 ERIGA DCT FUJTI DCT PEPET DCT BAKUP DCT BATAX DCT ABRAT DCT TAKAV DCT ROLRO DCT SOLNA DCT LAY Y601 GUPEL GUPEL1V
Aircraft A359/H-SABDE2E3GHIJ1J2J3J4J5M1P2RWXYZ/LB1D1

Departure

Time 2026-05-09 09:38
Airport Charles de Gaulle International Airport (LFPG)

Arrival

Time N/A
Airport Nouakchott–Oumtounsy International Airport (GQNO)
Time Latitude Longitude Altitude Speed Heading
2026-05-09 09:05 49.00155 2.58018 365 ft 0 kts 355°
2026-05-09 09:26 49.00150 2.58019 361 ft 1 kts 355°
2026-05-09 09:27 49.00137 2.58019 364 ft 2 kts 358°
2026-05-09 09:27 49.00120 2.58019 361 ft 2 kts
2026-05-09 09:27 49.00104 2.58017 360 ft 2 kts
2026-05-09 09:27 49.00088 2.58011 362 ft 2 kts 27°
2026-05-09 09:28 49.00076 2.57995 368 ft 2 kts 74°
2026-05-09 09:28 49.00075 2.57984 367 ft 0 kts 85°
2026-05-09 09:32 49.00078 2.58049 369 ft 7 kts 85°
2026-05-09 09:32 49.00083 2.58137 365 ft 9 kts 85°
2026-05-09 09:32 49.00088 2.58245 367 ft 11 kts 89°
2026-05-09 09:32 49.00044 2.58308 368 ft 9 kts 190°
2026-05-09 09:33 49.00011 2.58235 367 ft 10 kts 253°
2026-05-09 09:33 49.00001 2.58101 367 ft 15 kts 265°
2026-05-09 09:33 48.99991 2.57931 366 ft 17 kts 265°
2026-05-09 09:33 48.99982 2.57739 362 ft 19 kts 265°
2026-05-09 09:34 48.99971 2.57532 360 ft 21 kts 265°
2026-05-09 09:34 48.99959 2.57309 368 ft 22 kts 265°
2026-05-09 09:34 48.99946 2.57067 367 ft 24 kts 265°
2026-05-09 09:36 48.99762 2.55802 366 ft 13 kts 175°
2026-05-09 09:36 48.99663 2.55817 368 ft 13 kts 175°
2026-05-09 09:36 48.99606 2.55857 367 ft 8 kts 121°
2026-05-09 09:37 48.99605 2.55925 364 ft 1 kts 85°
2026-05-09 09:37 48.99609 2.56016 360 ft 31 kts 86°
2026-05-09 09:38 48.99645 2.56698 365 ft 97 kts 85°
2026-05-09 09:38 48.99716 2.58031 370 ft 153 kts 85°
2026-05-09 09:38 48.99795 2.59701 937 ft 156 kts 86°
2026-05-09 09:38 48.99861 2.61300 1813 ft 148 kts 87°
2026-05-09 09:39 48.99928 2.62894 2396 ft 155 kts 87°
2026-05-09 09:39 49.00024 2.64569 2891 ft 161 kts 87°
2026-05-09 09:39 49.00130 2.66281 3489 ft 166 kts 86°
2026-05-09 09:39 49.00238 2.68136 3822 ft 186 kts 87°
2026-05-09 09:40 49.00353 2.70226 4098 ft 211 kts 88°
2026-05-09 09:40 49.00481 2.72572 4402 ft 233 kts 87°
2026-05-09 09:40 49.00615 2.75146 4819 ft 254 kts 87°
2026-05-09 09:40 49.00605 2.77880 5442 ft 261 kts 97°
2026-05-09 09:41 49.00375 2.80616 6215 ft 266 kts 101°
2026-05-09 09:41 49.00063 2.83427 6948 ft 273 kts 106°
2026-05-09 09:41 48.99197 2.85973 7676 ft 274 kts 133°
2026-05-09 09:41 48.97665 2.87644 8474 ft 274 kts 160°
2026-05-09 09:42 48.95795 2.88084 9281 ft 275 kts 186°
2026-05-09 09:42 48.93989 2.87194 10128 ft 276 kts 212°
2026-05-09 09:42 48.92579 2.85149 10658 ft 291 kts 236°
2026-05-09 09:42 48.91607 2.82331 11025 ft 312 kts 246°
2026-05-09 09:43 48.90733 2.79257 11378 ft 331 kts 245°
2026-05-09 09:43 48.89818 2.75976 11916 ft 342 kts 246°
2026-05-09 09:43 48.88899 2.72602 12649 ft 348 kts 246°
2026-05-09 09:43 48.87982 2.69169 13417 ft 353 kts 246°
2026-05-09 09:44 48.87057 2.65686 14160 ft 358 kts 246°
2026-05-09 09:44 48.86123 2.62161 14852 ft 361 kts 246°
2026-05-09 09:44 48.85182 2.58603 15525 ft 365 kts 247°
2026-05-09 09:44 48.84234 2.55017 16215 ft 368 kts 247°
2026-05-09 09:45 48.83276 2.51397 16900 ft 371 kts 247°
2026-05-09 09:45 48.82323 2.47798 17597 ft 374 kts 247°
2026-05-09 09:45 48.81351 2.44130 18307 ft 377 kts 247°
2026-05-09 09:45 48.80520 2.40334 18912 ft 382 kts 255°
2026-05-09 09:46 48.80126 2.36320 19516 ft 388 kts 265°
2026-05-09 09:46 48.80079 2.32202 20133 ft 393 kts 268°
2026-05-09 09:46 48.80098 2.28036 20762 ft 397 kts 268°
2026-05-09 09:46 48.80117 2.23827 21379 ft 400 kts 268°
2026-05-09 09:47 48.80129 2.19596 21979 ft 404 kts 268°
2026-05-09 09:47 48.79999 2.15326 22642 ft 405 kts 261°
2026-05-09 09:47 48.79483 2.11137 23324 ft 405 kts 255°
2026-05-09 09:47 48.78813 2.06970 23852 ft 409 kts 253°
2026-05-09 09:48 48.78063 2.02852 24231 ft 412 kts 252°
2026-05-09 09:48 48.77255 1.98668 24447 ft 415 kts 251°
2026-05-09 09:48 48.76424 1.94457 24680 ft 418 kts 251°
2026-05-09 09:48 48.75589 1.90232 24929 ft 420 kts 251°
2026-05-09 09:49 48.74751 1.85970 25169 ft 423 kts 251°
2026-05-09 09:49 48.73916 1.81693 25428 ft 425 kts 251°
2026-05-09 09:49 48.73079 1.77382 25689 ft 427 kts 251°
2026-05-09 09:49 48.72241 1.73059 25968 ft 429 kts 251°
2026-05-09 09:50 48.71410 1.68778 26327 ft 429 kts 250°
2026-05-09 09:50 48.70568 1.64441 26590 ft 432 kts 250°
2026-05-09 09:50 48.69714 1.60062 26864 ft 435 kts 250°
2026-05-09 09:50 48.68853 1.55658 27148 ft 437 kts 250°
2026-05-09 09:51 48.67988 1.51241 27460 ft 440 kts 250°
2026-05-09 09:51 48.67115 1.46796 27751 ft 442 kts 250°
2026-05-09 09:51 48.66235 1.42329 28040 ft 445 kts 250°
2026-05-09 09:51 48.65347 1.37830 28359 ft 447 kts 250°
2026-05-09 09:52 48.64464 1.33368 28663 ft 450 kts 250°
2026-05-09 09:52 48.63565 1.28841 29119 ft 449 kts 250°
2026-05-09 09:52 48.62669 1.24326 29611 ft 448 kts 250°
2026-05-09 09:52 48.61770 1.19806 29954 ft 451 kts 250°
2026-05-09 09:53 48.60861 1.15253 30241 ft 454 kts 250°
2026-05-09 09:53 48.59944 1.10668 30538 ft 456 kts 250°
2026-05-09 09:53 48.59024 1.06077 30852 ft 458 kts 250°
2026-05-09 09:53 48.58097 1.01468 31144 ft 460 kts 250°
2026-05-09 09:54 48.57164 0.96837 31435 ft 461 kts 250°
2026-05-09 09:54 48.56227 0.92197 31718 ft 463 kts 250°
2026-05-09 09:54 48.55298 0.87612 31995 ft 464 kts 250°
2026-05-09 09:54 48.54351 0.82944 32358 ft 464 kts 250°
2026-05-09 09:55 48.53405 0.78291 32665 ft 465 kts 250°
2026-05-09 09:55 48.52454 0.73621 32900 ft 467 kts 250°
2026-05-09 09:55 48.51494 0.68927 33129 ft 469 kts 250°
2026-05-09 09:55 48.50532 0.64232 33386 ft 469 kts 250°
2026-05-09 09:56 48.49570 0.59539 33773 ft 468 kts 249°
2026-05-09 09:56 48.48608 0.54856 34129 ft 466 kts 249°
2026-05-09 09:56 48.47661 0.50262 34395 ft 466 kts 249°
2026-05-09 09:56 48.46697 0.45599 34636 ft 466 kts 249°
2026-05-09 09:57 48.45731 0.40939 34921 ft 466 kts 249°
2026-05-09 09:57 48.44764 0.36281 35223 ft 465 kts 249°
2026-05-09 09:57 48.43797 0.31633 35449 ft 465 kts 249°
2026-05-09 09:57 48.42827 0.26987 35757 ft 464 kts 250°
2026-05-09 09:58 48.41861 0.22364 36034 ft 463 kts 249°
2026-05-09 09:58 48.40891 0.17736 36239 ft 464 kts 249°
2026-05-09 09:58 48.39929 0.13157 36435 ft 465 kts 249°
2026-05-09 09:58 48.38952 0.08520 36658 ft 466 kts 249°
2026-05-09 09:59 48.37970 0.03867 36869 ft 466 kts 249°
2026-05-09 09:59 48.36917 -0.00735 37095 ft 465 kts 245°
2026-05-09 09:59 48.35529 -0.05114 37341 ft 462 kts 238°
2026-05-09 09:59 48.33801 -0.09167 37537 ft 461 kts 233°
2026-05-09 10:00 48.31944 -0.13092 37745 ft 461 kts 232°
2026-05-09 10:00 48.30040 -0.16966 37946 ft 461 kts 231°
2026-05-09 10:00 48.28113 -0.20817 38139 ft 461 kts 231°
2026-05-09 10:00 48.26180 -0.24658 38319 ft 462 kts 231°
2026-05-09 10:01 48.24272 -0.28447 38511 ft 462 kts 230°
2026-05-09 10:01 48.22314 -0.32280 38658 ft 463 kts 230°
2026-05-09 10:01 48.20355 -0.36089 38856 ft 461 kts 230°
2026-05-09 10:02 48.16433 -0.43702 38984 ft 461 kts 230°
2026-05-09 10:02 48.12516 -0.51319 38984 ft 462 kts 230°
2026-05-09 10:03 48.08624 -0.58886 38990 ft 462 kts 230°
2026-05-09 10:03 48.04707 -0.66484 38993 ft 462 kts 230°
2026-05-09 10:04 48.00778 -0.74081 38991 ft 462 kts 230°
2026-05-09 10:04 47.96844 -0.81668 38993 ft 462 kts 230°
2026-05-09 10:05 47.92900 -0.89249 38989 ft 463 kts 230°
2026-05-09 10:05 47.88970 -0.96785 38958 ft 463 kts 230°
2026-05-09 10:06 47.85008 -1.04360 38955 ft 463 kts 230°
2026-05-09 10:06 47.81047 -1.11913 38955 ft 463 kts 230°
2026-05-09 10:07 47.77069 -1.19476 38954 ft 465 kts 229°
2026-05-09 10:07 47.73108 -1.26987 38971 ft 466 kts 229°
2026-05-09 10:08 47.69106 -1.34553 38948 ft 466 kts 229°
2026-05-09 10:08 47.65096 -1.42115 38946 ft 466 kts 229°
2026-05-09 10:09 47.61080 -1.49668 38949 ft 466 kts 229°
2026-05-09 10:09 47.56976 -1.57085 38955 ft 465 kts 226°
2026-05-09 10:10 47.52629 -1.64104 38944 ft 465 kts 225°
2026-05-09 10:10 47.48234 -1.71133 38953 ft 466 kts 225°
2026-05-09 10:11 47.43860 -1.78232 38954 ft 467 kts 225°
2026-05-09 10:11 47.39505 -1.85348 38956 ft 467 kts 226°
2026-05-09 10:12 47.35026 -1.92169 38960 ft 465 kts 218°
2026-05-09 10:12 47.29723 -1.97584 38961 ft 464 kts 211°
2026-05-09 10:13 47.24213 -2.02538 38961 ft 464 kts 210°
2026-05-09 10:13 47.18678 -2.07418 38974 ft 464 kts 210°
2026-05-09 10:14 47.13133 -2.12322 38959 ft 466 kts 210°
2026-05-09 10:14 47.07615 -2.17216 38947 ft 467 kts 210°
2026-05-09 10:15 47.02042 -2.22156 38941 ft 468 kts 210°
2026-05-09 10:15 46.96476 -2.27076 38943 ft 468 kts 210°
2026-05-09 10:16 46.90903 -2.31989 38942 ft 468 kts 210°
2026-05-09 10:16 46.85365 -2.36860 38945 ft 468 kts 210°
2026-05-09 10:17 46.79788 -2.41764 38942 ft 468 kts 210°
2026-05-09 10:17 46.74209 -2.46650 38945 ft 468 kts 210°
2026-05-09 10:18 46.68627 -2.51527 38943 ft 468 kts 210°
2026-05-09 10:18 46.63083 -2.56360 38941 ft 468 kts 210°
2026-05-09 10:19 46.57497 -2.61220 38933 ft 468 kts 210°
2026-05-09 10:19 46.51912 -2.66067 38932 ft 467 kts 210°
2026-05-09 10:20 46.46339 -2.70891 38933 ft 466 kts 210°
2026-05-09 10:20 46.40804 -2.75671 38929 ft 466 kts 210°
2026-05-09 10:21 46.35235 -2.80469 38940 ft 466 kts 210°
2026-05-09 10:21 46.29660 -2.85261 38925 ft 466 kts 210°
2026-05-09 10:22 46.24082 -2.90049 38919 ft 466 kts 210°
2026-05-09 10:22 46.18543 -2.94788 38916 ft 466 kts 210°
2026-05-09 10:23 46.12963 -2.99545 38908 ft 466 kts 209°
2026-05-09 10:23 46.07382 -3.04293 38908 ft 466 kts 210°
2026-05-09 10:24 46.01801 -3.09032 38906 ft 466 kts 210°
2026-05-09 10:24 45.96252 -3.13734 38906 ft 466 kts 210°
2026-05-09 10:25 45.90670 -3.18452 38908 ft 466 kts 209°
2026-05-09 10:25 45.85074 -3.23171 38900 ft 466 kts 209°
2026-05-09 10:26 45.79474 -3.27883 38895 ft 466 kts 209°
2026-05-09 10:26 45.73876 -3.32581 38892 ft 466 kts 209°
2026-05-09 10:27 45.68310 -3.37241 38888 ft 468 kts 210°
2026-05-09 10:27 45.62680 -3.41944 38890 ft 469 kts 210°
2026-05-09 10:28 45.57050 -3.46637 38881 ft 469 kts 210°
2026-05-09 10:28 45.51414 -3.51323 38894 ft 469 kts 210°
2026-05-09 10:29 45.45793 -3.55986 38879 ft 472 kts 210°
2026-05-09 10:29 45.40111 -3.60688 38869 ft 473 kts 209°
2026-05-09 10:30 45.34417 -3.65390 38873 ft 473 kts 209°
2026-05-09 10:30 45.28741 -3.70065 38866 ft 469 kts 209°
2026-05-09 10:31 45.24078 -3.73899 38861 ft 464 kts 209°
2026-05-09 10:31 45.17584 -3.79225 38861 ft 464 kts 209°
2026-05-09 10:32 45.11991 -3.83799 38862 ft 464 kts 209°
2026-05-09 10:32 45.07361 -3.87581 38859 ft 460 kts 209°
2026-05-09 10:33 45.01883 -3.92229 38856 ft 459 kts 210°
2026-05-09 10:33 44.95554 -3.97705 38853 ft 459 kts 210°
2026-05-09 10:34 44.90982 -4.01631 38843 ft 459 kts 211°
2026-05-09 10:34 44.82798 -4.08603 38847 ft 461 kts 210°
2026-05-09 10:35 44.77302 -4.13266 38847 ft 461 kts 210°
2026-05-09 10:35 44.70913 -4.18674 38847 ft 461 kts 210°
2026-05-09 10:36 44.66309 -4.22564 38847 ft 461 kts 210°
2026-05-09 10:36 44.60846 -4.27169 38840 ft 461 kts 210°
2026-05-09 10:37 44.55344 -4.31797 38839 ft 461 kts 210°
2026-05-09 10:37 44.49837 -4.36418 38840 ft 463 kts 211°
2026-05-09 10:38 44.44287 -4.41066 38840 ft 465 kts 211°
2026-05-09 10:38 44.38730 -4.45721 38837 ft 466 kts 211°
2026-05-09 10:39 44.33233 -4.50382 38836 ft 466 kts 211°
2026-05-09 10:39 44.27694 -4.55082 38835 ft 466 kts 211°
2026-05-09 10:40 44.22155 -4.59763 38842 ft 466 kts 211°
2026-05-09 10:40 44.16599 -4.64441 38833 ft 467 kts 211°
2026-05-09 10:41 44.11084 -4.69074 38835 ft 466 kts 211°
2026-05-09 10:41 44.05542 -4.73718 38834 ft 464 kts 211°
2026-05-09 10:42 44.00010 -4.78345 38822 ft 464 kts 211°
2026-05-09 10:42 43.94478 -4.82962 38828 ft 464 kts 211°
2026-05-09 10:43 43.88988 -4.87533 38819 ft 463 kts 211°
2026-05-09 10:43 43.83466 -4.92122 38815 ft 462 kts 211°
2026-05-09 10:44 43.77953 -4.96692 38826 ft 462 kts 211°
2026-05-09 10:44 43.72414 -5.01275 38823 ft 465 kts 211°
2026-05-09 10:46 43.58624 -5.12640 38823 ft 462 kts 211°
2026-05-09 10:46 43.53105 -5.17171 38823 ft 462 kts 211°
2026-05-09 10:47 43.47584 -5.21695 38819 ft 460 kts 210°
2026-05-09 10:47 43.42081 -5.26194 38822 ft 460 kts 210°
2026-05-09 10:48 43.36623 -5.30646 38826 ft 459 kts 210°
2026-05-09 10:48 43.31124 -5.35122 38827 ft 460 kts 210°
2026-05-09 10:49 43.25595 -5.39613 38828 ft 461 kts 210°
2026-05-09 10:49 43.20076 -5.44087 38836 ft 461 kts 210°
2026-05-09 10:50 43.14596 -5.48520 38832 ft 461 kts 210°
2026-05-09 10:50 43.09080 -5.52972 38838 ft 460 kts 210°
2026-05-09 10:51 43.03563 -5.57416 38850 ft 459 kts 210°
2026-05-09 10:51 42.98057 -5.61842 38850 ft 459 kts 210°
2026-05-09 10:52 42.92589 -5.66228 38850 ft 459 kts 210°
2026-05-09 10:52 42.87080 -5.70637 38857 ft 459 kts 210°
2026-05-09 10:53 42.81575 -5.75033 38855 ft 459 kts 210°
2026-05-09 10:53 42.76061 -5.79429 38854 ft 459 kts 210°
2026-05-09 10:54 42.70585 -5.83784 38856 ft 459 kts 210°
2026-05-09 10:54 42.65071 -5.88161 38854 ft 459 kts 210°
2026-05-09 10:55 42.59556 -5.92530 38860 ft 459 kts 210°
2026-05-09 10:55 42.54036 -5.96894 38856 ft 459 kts 210°
2026-05-09 10:56 42.48549 -6.01222 38853 ft 459 kts 210°
2026-05-09 10:56 42.43030 -6.05567 38852 ft 459 kts 210°
2026-05-09 10:57 42.37510 -6.09903 38857 ft 459 kts 210°
2026-05-09 10:57 42.31973 -6.14244 38843 ft 460 kts 210°
2026-05-09 10:58 42.26432 -6.18579 38840 ft 460 kts 210°
2026-05-09 10:58 42.20926 -6.22878 38839 ft 461 kts 210°
2026-05-09 10:59 42.15373 -6.27205 38837 ft 461 kts 210°
2026-05-09 10:59 42.09814 -6.31527 38835 ft 461 kts 210°
2026-05-09 11:00 42.04255 -6.35842 38836 ft 461 kts 210°
2026-05-09 11:00 41.98700 -6.40143 38832 ft 461 kts 210°
2026-05-09 11:01 41.93182 -6.44408 38832 ft 460 kts 210°
2026-05-09 11:01 41.87629 -6.48692 38827 ft 461 kts 210°
2026-05-09 11:02 41.82064 -6.52976 38827 ft 462 kts 210°
2026-05-09 11:02 41.76488 -6.57258 38819 ft 461 kts 210°
2026-05-09 11:03 41.70907 -6.61492 38814 ft 461 kts 207°
2026-05-09 11:03 41.65108 -6.65019 38809 ft 461 kts 204°
2026-05-09 11:04 41.59144 -6.68205 38807 ft 461 kts 201°
2026-05-09 11:04 41.53146 -6.71238 38795 ft 461 kts 201°
2026-05-09 11:05 41.47157 -6.74298 38795 ft 461 kts 202°
2026-05-09 11:05 41.41217 -6.77370 38797 ft 461 kts 202°
2026-05-09 11:06 41.35241 -6.80468 38784 ft 461 kts 202°
2026-05-09 11:06 41.29275 -6.83555 38791 ft 459 kts 202°
2026-05-09 11:07 41.23310 -6.86635 38782 ft 461 kts 202°
2026-05-09 11:07 41.17313 -6.89723 38784 ft 463 kts 202°
2026-05-09 11:08 41.11306 -6.92809 38779 ft 463 kts 202°
2026-05-09 11:08 41.05348 -6.95865 38783 ft 462 kts 202°
2026-05-09 11:09 40.99343 -6.98939 38781 ft 462 kts 202°
2026-05-09 11:09 40.93342 -7.02005 38777 ft 462 kts 202°
2026-05-09 11:10 40.87339 -7.05066 38770 ft 462 kts 202°
2026-05-09 11:10 40.81380 -7.08099 38775 ft 462 kts 202°
2026-05-09 11:11 40.75383 -7.11144 38780 ft 462 kts 202°
2026-05-09 11:11 40.69375 -7.14189 38781 ft 462 kts 202°
2026-05-09 11:12 40.63373 -7.17225 38779 ft 461 kts 202°
2026-05-09 11:12 40.57384 -7.20249 38778 ft 461 kts 202°
2026-05-09 11:13 40.51434 -7.23247 38782 ft 461 kts 202°
2026-05-09 11:13 40.45448 -7.26260 38780 ft 460 kts 202°
2026-05-09 11:14 40.39455 -7.29270 38781 ft 461 kts 202°
2026-05-09 11:14 40.33469 -7.32270 38773 ft 461 kts 202°
2026-05-09 11:15 40.27484 -7.35264 38773 ft 461 kts 202°
2026-05-09 11:15 40.21529 -7.38236 38775 ft 461 kts 202°
2026-05-09 11:16 40.15513 -7.41234 38772 ft 463 kts 202°
2026-05-09 11:16 40.09488 -7.44231 38771 ft 464 kts 202°
2026-05-09 11:17 40.03448 -7.47231 38788 ft 464 kts 202°
2026-05-09 11:17 39.97422 -7.50215 38749 ft 463 kts 202°
2026-05-09 11:18 39.91422 -7.53175 38767 ft 464 kts 202°
2026-05-09 11:18 39.85385 -7.56158 38766 ft 464 kts 202°
2026-05-09 11:19 39.79348 -7.59136 38762 ft 464 kts 202°
2026-05-09 11:19 39.73313 -7.62105 38753 ft 464 kts 203°
2026-05-09 11:20 39.67272 -7.65070 38757 ft 464 kts 203°
2026-05-09 11:20 39.61225 -7.68032 38754 ft 464 kts 203°
2026-05-09 11:21 39.55226 -7.70966 38759 ft 464 kts 203°
2026-05-09 11:21 39.49188 -7.73912 38752 ft 463 kts 203°
2026-05-09 11:22 39.43151 -7.76854 38750 ft 463 kts 203°
2026-05-09 11:22 39.37120 -7.79787 38748 ft 463 kts 203°
2026-05-09 11:23 39.31086 -7.82716 38735 ft 463 kts 204°
2026-05-09 11:23 39.25088 -7.85622 38752 ft 463 kts 204°
2026-05-09 11:24 39.19061 -7.88537 38751 ft 463 kts 204°
2026-05-09 11:24 39.13032 -7.91448 38749 ft 463 kts 203°
2026-05-09 11:25 39.07003 -7.94353 38736 ft 462 kts 204°
2026-05-09 11:25 39.00983 -7.97248 38754 ft 462 kts 204°
2026-05-09 11:26 38.95006 -8.00118 38758 ft 461 kts 204°
2026-05-09 11:26 38.88988 -8.03002 38756 ft 461 kts 204°
2026-05-09 11:27 38.82975 -8.05879 38749 ft 461 kts 204°
2026-05-09 11:27 38.76968 -8.08746 38757 ft 460 kts 204°
2026-05-09 11:28 38.70971 -8.11605 38764 ft 460 kts 204°
2026-05-09 11:28 38.65010 -8.14442 38770 ft 460 kts 204°
2026-05-09 11:29 38.59011 -8.17291 38766 ft 460 kts 204°
2026-05-09 11:29 38.53018 -8.20132 38770 ft 459 kts 204°
2026-05-09 11:30 38.47024 -8.22969 38774 ft 459 kts 204°
2026-05-09 11:30 38.41037 -8.25798 38779 ft 459 kts 204°
2026-05-09 11:31 38.35089 -8.28603 38771 ft 459 kts 204°
2026-05-09 11:31 38.29095 -8.31425 38782 ft 459 kts 204°
2026-05-09 11:32 38.23105 -8.34240 38780 ft 459 kts 204°
2026-05-09 11:32 38.17104 -8.37055 38790 ft 460 kts 204°
2026-05-09 11:33 38.11086 -8.39873 38789 ft 461 kts 204°
2026-05-09 11:33 38.02107 -8.44069 38789 ft 461 kts 204°
2026-05-09 11:34 37.96086 -8.46875 38797 ft 461 kts 204°
2026-05-09 11:34 37.90076 -8.49673 38795 ft 461 kts 204°
2026-05-09 11:35 37.84059 -8.52468 38801 ft 460 kts 204°
2026-05-09 11:35 37.78044 -8.55258 38809 ft 460 kts 204°
2026-05-09 11:36 37.72038 -8.58039 38810 ft 460 kts 204°
2026-05-09 11:36 37.66068 -8.60798 38817 ft 460 kts 204°
2026-05-09 11:37 37.60059 -8.63570 38816 ft 460 kts 205°
2026-05-09 11:37 37.54054 -8.66336 38823 ft 459 kts 205°
2026-05-09 11:38 37.48057 -8.69094 38829 ft 459 kts 205°
2026-05-09 11:38 37.42094 -8.71831 38840 ft 459 kts 205°
2026-05-09 11:39 37.36096 -8.74579 38829 ft 459 kts 205°
2026-05-09 11:40 37.27113 -8.78687 38837 ft 458 kts 205°
2026-05-09 11:40 37.21125 -8.81420 38837 ft 458 kts 205°
2026-05-09 11:41 37.15181 -8.84128 38840 ft 458 kts 205°
2026-05-09 11:41 37.09201 -8.86846 38841 ft 456 kts 206°
2026-05-09 11:42 37.03236 -8.89555 38843 ft 456 kts 206°
2026-05-09 11:42 36.97252 -8.92268 38851 ft 456 kts 206°
2026-05-09 11:43 36.91311 -8.94949 38848 ft 456 kts 206°
2026-05-09 11:43 36.85388 -8.97628 38851 ft 455 kts 206°
2026-05-09 11:44 36.79431 -9.00317 38851 ft 455 kts 206°
2026-05-09 11:44 36.73481 -9.02997 38851 ft 455 kts 206°
2026-05-09 11:45 36.67526 -9.05675 38855 ft 455 kts 206°
2026-05-09 11:45 36.61569 -9.08347 38851 ft 454 kts 206°
2026-05-09 11:46 36.55665 -9.10991 38863 ft 453 kts 206°
2026-05-09 11:46 36.49727 -9.13649 38859 ft 454 kts 206°
2026-05-09 11:47 36.43783 -9.16304 38861 ft 454 kts 206°
2026-05-09 11:47 36.37886 -9.18932 38852 ft 453 kts 206°
2026-05-09 11:48 36.31950 -9.21574 38864 ft 453 kts 206°
2026-05-09 11:48 36.26023 -9.24208 38869 ft 453 kts 206°
2026-05-09 11:49 36.20090 -9.26841 38871 ft 453 kts 206°
2026-05-09 11:49 36.14166 -9.29466 38872 ft 453 kts 206°
2026-05-09 11:50 36.08280 -9.32068 38874 ft 451 kts 207°
2026-05-09 11:50 36.02378 -9.34673 38889 ft 450 kts 207°
2026-05-09 11:51 35.96473 -9.37278 38896 ft 450 kts 207°
2026-05-09 11:51 35.90512 -9.39725 38879 ft 453 kts 205°
2026-05-09 11:52 35.84526 -9.41997 38886 ft 453 kts 205°
2026-05-09 11:52 35.78522 -9.44289 38888 ft 452 kts 205°
2026-05-09 11:53 35.72532 -9.46609 38888 ft 451 kts 205°
2026-05-09 11:53 35.66545 -9.48938 38895 ft 451 kts 205°
2026-05-09 11:54 35.60607 -9.51246 38895 ft 451 kts 205°
2026-05-09 11:54 35.54622 -9.53567 38897 ft 451 kts 205°
2026-05-09 11:55 35.48645 -9.55880 38892 ft 451 kts 205°
2026-05-09 11:56 35.30741 -9.62786 38906 ft 450 kts 205°
2026-05-09 11:57 35.24764 -9.65085 38908 ft 450 kts 205°
2026-05-09 11:57 35.18785 -9.67381 38908 ft 450 kts 205°
2026-05-09 11:58 35.12847 -9.69658 38908 ft 450 kts 205°
2026-05-09 11:58 35.06870 -9.71945 38904 ft 450 kts 206°
2026-05-09 11:59 35.00900 -9.74227 38916 ft 450 kts 206°
2026-05-09 11:59 34.94926 -9.76507 38922 ft 450 kts 206°
2026-05-09 12:00 34.88992 -9.78769 38924 ft 450 kts 206°
2026-05-09 12:00 34.83020 -9.81040 38915 ft 450 kts 206°
2026-05-09 12:01 34.77045 -9.83310 38917 ft 450 kts 206°
2026-05-09 12:01 34.71075 -9.85575 38922 ft 450 kts 206°
2026-05-09 12:02 34.65102 -9.87838 38939 ft 450 kts 206°
2026-05-09 12:02 34.59165 -9.90083 38945 ft 450 kts 206°
2026-05-09 12:03 34.53189 -9.92339 38936 ft 450 kts 206°
2026-05-09 12:03 34.47217 -9.94591 38938 ft 449 kts 206°
2026-05-09 12:04 34.41280 -9.96827 38944 ft 450 kts 206°
2026-05-09 12:04 34.35306 -9.99072 38944 ft 450 kts 206°
2026-05-09 12:05 34.29336 -10.01313 38941 ft 450 kts 206°
2026-05-09 12:05 34.23362 -10.03551 38950 ft 449 kts 206°
2026-05-09 12:06 34.17434 -10.05769 38952 ft 449 kts 206°
2026-05-09 12:06 34.11464 -10.08000 38952 ft 449 kts 206°
2026-05-09 12:07 34.05495 -10.10228 38924 ft 449 kts 207°
2026-05-09 12:07 33.99561 -10.12438 38964 ft 449 kts 207°
2026-05-09 12:08 33.93601 -10.14656 38960 ft 449 kts 207°
2026-05-09 12:08 33.87633 -10.16873 38973 ft 449 kts 207°
2026-05-09 12:09 33.81663 -10.19088 38969 ft 449 kts 207°
2026-05-09 12:09 33.75699 -10.21295 38969 ft 449 kts 207°
2026-05-09 12:10 33.63805 -10.25693 38977 ft 449 kts 207°
2026-05-09 12:11 33.57839 -10.27893 38974 ft 449 kts 207°
2026-05-09 12:11 33.51871 -10.30090 38927 ft 448 kts 208°
2026-05-09 12:12 33.45939 -10.32272 38982 ft 449 kts 208°
2026-05-09 12:12 33.39968 -10.34465 38984 ft 449 kts 208°
2026-05-09 12:13 33.33994 -10.36655 38991 ft 449 kts 208°
2026-05-09 12:13 33.28026 -10.38840 38990 ft 449 kts 208°
2026-05-09 12:14 33.22050 -10.41025 38986 ft 449 kts 208°
2026-05-09 12:14 33.16118 -10.43191 38992 ft 449 kts 208°
2026-05-09 12:15 33.10146 -10.45368 38993 ft 449 kts 208°
2026-05-09 12:15 33.04174 -10.47542 38993 ft 449 kts 208°
2026-05-09 12:16 32.98238 -10.49701 38998 ft 449 kts 208°
2026-05-09 12:16 32.92264 -10.51869 39001 ft 449 kts 208°
2026-05-09 12:17 32.86297 -10.54032 39001 ft 449 kts 208°
2026-05-09 12:17 32.80322 -10.56196 39006 ft 449 kts 208°
2026-05-09 12:18 32.74348 -10.58355 39004 ft 449 kts 208°
2026-05-09 12:18 32.68418 -10.60495 38989 ft 448 kts 208°
2026-05-09 12:19 32.62452 -10.62646 39007 ft 448 kts 208°
2026-05-09 12:19 32.56483 -10.64795 39009 ft 448 kts 208°
2026-05-09 12:20 32.50515 -10.66941 39012 ft 448 kts 208°
2026-05-09 12:20 32.44586 -10.69070 39017 ft 448 kts 208°
2026-05-09 12:21 32.38620 -10.71208 39020 ft 448 kts 208°
2026-05-09 12:21 32.32653 -10.73344 39024 ft 448 kts 208°
2026-05-09 12:22 32.26692 -10.75475 39025 ft 448 kts 208°
2026-05-09 12:22 32.20767 -10.77591 39025 ft 448 kts 208°
2026-05-09 12:23 32.14798 -10.79719 38988 ft 448 kts 208°
2026-05-09 12:23 32.08833 -10.81843 39028 ft 447 kts 208°
2026-05-09 12:24 32.02873 -10.83962 39037 ft 447 kts 208°
2026-05-09 12:24 31.96953 -10.86065 39034 ft 447 kts 208°
2026-05-09 12:25 31.90993 -10.88179 39034 ft 447 kts 208°
2026-05-09 12:25 31.85032 -10.90289 39018 ft 447 kts 208°
2026-05-09 12:26 31.79080 -10.92393 39025 ft 447 kts 208°
2026-05-09 12:26 31.73167 -10.94482 39030 ft 447 kts 208°
2026-05-09 12:27 31.67222 -10.96580 39038 ft 447 kts 208°
2026-05-09 12:27 31.61359 -10.98860 39038 ft 441 kts 212°
2026-05-09 12:28 31.55625 -11.01382 39039 ft 439 kts 212°
2026-05-09 12:28 31.49896 -11.03885 39043 ft 440 kts 212°
2026-05-09 12:29 31.44188 -11.06323 39051 ft 440 kts 212°
2026-05-09 12:29 31.38422 -11.08757 39053 ft 440 kts 212°
2026-05-09 12:30 31.32659 -11.11184 39053 ft 440 kts 212°
2026-05-09 12:30 31.24060 -11.14802 39057 ft 440 kts 212°
2026-05-09 12:31 31.15426 -11.18431 39053 ft 440 kts 212°
2026-05-09 12:32 31.09668 -11.20848 39058 ft 440 kts 212°
2026-05-09 12:32 31.03946 -11.23245 39058 ft 440 kts 211°
2026-05-09 12:33 30.98193 -11.25653 39059 ft 439 kts 211°
2026-05-09 12:33 30.92440 -11.28057 39061 ft 439 kts 211°
2026-05-09 12:34 30.86693 -11.30456 39065 ft 439 kts 211°
2026-05-09 12:34 30.80938 -11.32856 39061 ft 439 kts 211°
2026-05-09 12:35 30.75223 -11.35236 39067 ft 440 kts 211°
2026-05-09 12:35 30.69454 -11.37636 39066 ft 440 kts 211°
2026-05-09 12:36 30.63690 -11.40029 39068 ft 440 kts 211°
2026-05-09 12:36 30.57927 -11.42419 39070 ft 440 kts 211°
2026-05-09 12:37 30.52205 -11.44789 39069 ft 440 kts 211°
2026-05-09 12:37 30.46438 -11.47176 39069 ft 440 kts 211°
2026-05-09 12:38 30.40669 -11.49560 39068 ft 440 kts 211°
2026-05-09 12:38 30.34898 -11.51941 39075 ft 440 kts 211°
2026-05-09 12:39 30.29165 -11.54304 39066 ft 440 kts 211°
2026-05-09 12:39 30.23395 -11.56679 39070 ft 440 kts 211°
2026-05-09 12:40 30.17666 -11.59138 39081 ft 435 kts 214°
2026-05-09 12:40 30.12178 -11.62021 39075 ft 432 kts 216°
2026-05-09 12:41 30.06807 -11.65001 39073 ft 431 kts 217°
2026-05-09 12:41 30.01407 -11.68013 39077 ft 431 kts 216°
2026-05-09 12:42 29.95993 -11.71013 39081 ft 431 kts 216°
2026-05-09 12:42 29.90579 -11.73999 39077 ft 431 kts 216°
2026-05-09 12:43 29.85163 -11.76980 39066 ft 432 kts 216°
2026-05-09 12:43 29.79776 -11.79942 39081 ft 432 kts 216°
2026-05-09 12:44 29.74354 -11.82921 39089 ft 432 kts 216°
2026-05-09 12:44 29.68928 -11.85898 39088 ft 432 kts 216°
2026-05-09 12:45 29.63504 -11.88870 39086 ft 432 kts 216°
2026-05-09 12:45 29.58114 -11.91820 39089 ft 432 kts 216°
2026-05-09 12:46 29.52683 -11.94790 39086 ft 433 kts 216°
2026-05-09 12:46 29.47241 -11.97762 39089 ft 433 kts 216°
2026-05-09 12:47 29.41790 -12.00734 39085 ft 433 kts 216°
2026-05-09 12:47 29.36380 -12.03680 39093 ft 434 kts 216°
2026-05-09 12:48 29.30929 -12.06646 39094 ft 434 kts 216°
2026-05-09 12:48 29.25483 -12.09605 39072 ft 434 kts 216°
2026-05-09 12:49 29.20014 -12.12575 39092 ft 435 kts 216°
2026-05-09 12:49 29.14582 -12.15520 39094 ft 435 kts 216°
2026-05-09 12:50 29.09117 -12.18479 39095 ft 435 kts 216°
2026-05-09 12:50 29.03646 -12.21438 39097 ft 435 kts 216°
2026-05-09 12:51 28.98172 -12.24394 39098 ft 435 kts 216°
2026-05-09 12:51 28.92731 -12.27331 39096 ft 436 kts 216°
2026-05-09 12:52 28.87251 -12.30285 39091 ft 436 kts 216°
2026-05-09 12:52 28.81768 -12.33237 39096 ft 436 kts 216°
2026-05-09 12:53 28.76277 -12.36189 39100 ft 436 kts 216°
2026-05-09 12:53 28.70831 -12.39113 39098 ft 436 kts 216°
2026-05-09 12:54 28.65343 -12.42057 39093 ft 436 kts 216°
2026-05-09 12:54 28.59846 -12.45004 39098 ft 437 kts 216°
2026-05-09 12:55 28.54348 -12.47946 39091 ft 437 kts 216°
2026-05-09 12:55 28.48849 -12.50886 39096 ft 437 kts 216°
2026-05-09 12:56 28.43344 -12.53825 39096 ft 437 kts 216°
2026-05-09 12:56 28.37880 -12.56739 39094 ft 437 kts 216°
2026-05-09 12:57 28.32376 -12.59672 39093 ft 437 kts 216°
2026-05-09 12:57 28.26871 -12.62601 39096 ft 437 kts 216°
2026-05-09 12:58 28.21359 -12.65531 39096 ft 437 kts 216°
2026-05-09 12:58 28.15886 -12.68436 39088 ft 437 kts 216°
2026-05-09 12:59 28.10377 -12.71358 39088 ft 437 kts 216°
2026-05-09 12:59 28.04868 -12.74276 39065 ft 437 kts 216°
2026-05-09 13:00 27.99347 -12.77198 39093 ft 438 kts 216°
2026-05-09 13:00 27.93829 -12.80113 39089 ft 437 kts 216°
2026-05-09 13:01 27.88356 -12.83002 39086 ft 437 kts 216°
2026-05-09 13:01 27.82843 -12.85910 39076 ft 437 kts 216°
2026-05-09 13:02 27.77331 -12.88814 39078 ft 437 kts 216°
2026-05-09 13:02 27.72744 -12.91228 39072 ft 437 kts 215°
2026-05-09 13:03 27.66340 -12.94593 39083 ft 437 kts 215°
2026-05-09 13:03 27.60823 -12.97489 39086 ft 437 kts 215°
2026-05-09 13:04 27.55312 -13.00379 39084 ft 437 kts 215°
2026-05-09 13:04 27.50724 -13.02783 39083 ft 437 kts 215°
2026-05-09 13:05 27.44314 -13.06137 39055 ft 437 kts 215°
2026-05-09 13:05 27.38798 -13.09021 39089 ft 437 kts 215°
2026-05-09 13:06 27.33275 -13.11903 39090 ft 438 kts 215°
2026-05-09 13:06 27.28682 -13.14299 39098 ft 438 kts 214°
2026-05-09 13:07 27.22267 -13.17640 39074 ft 437 kts 214°
2026-05-09 13:07 27.16740 -13.20516 39076 ft 438 kts 215°
2026-05-09 13:08 27.11933 -13.22517 39077 ft 448 kts 207°
2026-05-09 13:08 27.05933 -13.24486 39075 ft 450 kts 206°
2026-05-09 13:09 26.98919 -13.26673 39080 ft 450 kts 206°
2026-05-09 13:09 26.93858 -13.28253 39084 ft 450 kts 206°
2026-05-09 13:10 26.87865 -13.30135 39089 ft 450 kts 206°
2026-05-09 13:10 26.81835 -13.32034 39076 ft 450 kts 206°
2026-05-09 13:11 26.75790 -13.33938 39093 ft 452 kts 206°
2026-05-09 13:11 26.69736 -13.35840 39091 ft 452 kts 206°
2026-05-09 13:12 26.63722 -13.37727 39090 ft 452 kts 206°
2026-05-09 13:12 26.57671 -13.39623 39088 ft 452 kts 206°
2026-05-09 13:13 26.51622 -13.41518 39071 ft 452 kts 205°
2026-05-09 13:13 26.45555 -13.43418 39085 ft 453 kts 205°
2026-05-09 13:14 26.39483 -13.45315 39081 ft 453 kts 205°
2026-05-09 13:16 26.15213 -13.52876 39075 ft 454 kts 204°
2026-05-09 13:16 26.09119 -13.54771 39075 ft 454 kts 204°
2026-05-09 13:17 26.03070 -13.56648 39109 ft 455 kts 204°
2026-05-09 13:17 26.00023 -13.57593 39303 ft 455 kts 204°
2026-05-09 13:17 25.96973 -13.58538 39496 ft 455 kts 204°
2026-05-09 13:17 25.93923 -13.59483 39686 ft 455 kts 204°
2026-05-09 13:18 25.90877 -13.60426 39837 ft 455 kts 204°
2026-05-09 13:18 25.87826 -13.61371 39970 ft 456 kts 204°
2026-05-09 13:18 25.84768 -13.62318 40142 ft 456 kts 204°
2026-05-09 13:18 25.81714 -13.63262 40310 ft 456 kts 204°
2026-05-09 13:19 25.78658 -13.64206 40485 ft 456 kts 204°
2026-05-09 13:19 25.75642 -13.65137 40641 ft 456 kts 204°
2026-05-09 13:19 25.72589 -13.66079 40788 ft 456 kts 204°
2026-05-09 13:19 25.69528 -13.67023 40946 ft 456 kts 204°
2026-05-09 13:20 25.66478 -13.67964 41059 ft 456 kts 204°
2026-05-09 13:20 25.60362 -13.69848 41044 ft 455 kts 204°
2026-05-09 13:21 25.54250 -13.71730 41074 ft 456 kts 204°
2026-05-09 13:21 25.48129 -13.73612 41073 ft 457 kts 204°
2026-05-09 13:22 25.42044 -13.75481 41066 ft 457 kts 204°
2026-05-09 13:22 25.35924 -13.77358 41067 ft 457 kts 204°
2026-05-09 13:23 25.20651 -13.82037 41072 ft 457 kts 203°
2026-05-09 13:24 25.14512 -13.83913 41069 ft 458 kts 203°
2026-05-09 13:24 25.08380 -13.85784 41072 ft 458 kts 203°
2026-05-09 13:25 25.02243 -13.87656 41071 ft 457 kts 203°
2026-05-09 13:26 24.93110 -13.90515 41064 ft 457 kts 203°
2026-05-09 13:26 24.86990 -13.92434 41064 ft 457 kts 203°
2026-05-09 13:27 24.80873 -13.94348 41067 ft 457 kts 203°
2026-05-09 13:27 24.74746 -13.96262 41067 ft 457 kts 203°
2026-05-09 13:28 24.68670 -13.98157 41066 ft 457 kts 203°
2026-05-09 13:28 24.62538 -14.00069 41065 ft 458 kts 202°
2026-05-09 13:29 24.56406 -14.01978 41064 ft 458 kts 202°
2026-05-09 13:29 24.50308 -14.03875 41064 ft 458 kts 202°
2026-05-09 13:30 24.44169 -14.05782 41065 ft 458 kts 202°
2026-05-09 13:30 24.38030 -14.07687 41064 ft 458 kts 202°
2026-05-09 13:31 24.31895 -14.09590 41056 ft 459 kts 202°
2026-05-09 13:31 24.25740 -14.11497 41064 ft 460 kts 202°
2026-05-09 13:32 24.19630 -14.13387 41063 ft 460 kts 202°
2026-05-09 13:32 24.10395 -14.16242 41061 ft 460 kts 202°
2026-05-09 13:33 24.04237 -14.18143 41058 ft 460 kts 202°
2026-05-09 13:33 23.98115 -14.20030 41059 ft 460 kts 202°
2026-05-09 13:34 23.91962 -14.21926 41061 ft 460 kts 202°
2026-05-09 13:34 23.85806 -14.23821 41058 ft 459 kts 202°
2026-05-09 13:35 23.79652 -14.25713 41059 ft 459 kts 202°
2026-05-09 13:35 23.73537 -14.27591 41059 ft 459 kts 202°
2026-05-09 13:36 23.67384 -14.29480 41052 ft 460 kts 201°
2026-05-09 13:36 23.61221 -14.31369 41051 ft 460 kts 201°
2026-05-09 13:37 23.55055 -14.33257 41056 ft 460 kts 201°
2026-05-09 13:37 23.48886 -14.35145 41046 ft 460 kts 201°
2026-05-09 13:38 23.42756 -14.37019 41046 ft 460 kts 201°
2026-05-09 13:38 23.36583 -14.38904 41043 ft 461 kts 201°
2026-05-09 13:39 23.30402 -14.40790 41046 ft 462 kts 201°
2026-05-09 13:39 23.24208 -14.42678 41045 ft 462 kts 201°
2026-05-09 13:40 23.18059 -14.44550 41035 ft 462 kts 201°
2026-05-09 13:40 23.11867 -14.46433 41040 ft 462 kts 201°
2026-05-09 13:41 23.05677 -14.48315 41023 ft 462 kts 201°
2026-05-09 13:41 22.99471 -14.50199 41037 ft 463 kts 201°
2026-05-09 13:42 22.93261 -14.52083 41037 ft 463 kts 201°
2026-05-09 13:42 22.87095 -14.53951 41036 ft 463 kts 201°